Content
SEND FEEDBACK

Daily
Averages
Monthly
Summary
United States of America

ELGIN, OKLAHOMA


Home > North America > United States > Oklahoma
Elevation: 362 meters     Latitude: 34 39N     Longitude: 098 24W

WEATHER
 
SELECT A DAY
Number of Records: 133,949;   Date Range: 1/1/95 - 7/29/14
 
SHARE

PRINT THIS DATA

[ ← Previous Day ]
WEATHER ALMANAC - 31 JANUARY, 2013
[ Next Day → ]
[ °F ]   °C
Weather ElementAverageHighLow
Temperature4.4 °C15.2 °C (3:55 pm)-2.8 °C (6:55 am)
Dewpoint-4.3 °C-0.8 °C (6:55 pm)-7.4 °C (11:55 pm)
Humidity56.4 %78 % (7:55 am)29 % (3:55 pm)
Barometer1021.3 hPa1028.8 hPa (9:55 pm)1017.9 hPa (1:55 am)
Wind Speed14.5 km/h37 km/h (8:55 pm)
Wind Gust48.1 km/h (8:55 pm)
Weather ElementAverage
Visibility16.1 km
Wind DirectionESE (100 °)

Weather ElementTotal
Precipitation---
Heating Degree Days12.1 (Base 18.3)
Averaged from 23 records on 31 January, 2013
WEATHER CONDITIONS BREAKOUT
WIND DIRECTION BREAKOUT
WEATHER BY HOUR - 31 JANUARY, 2013
[ °F ]   °C
Local TimeTemperatureDewpointHumidityBarometerVisibilityWind DirectionWind SpeedGust SpeedPrecipitationEventsConditions
1:55 AM-0.2 °C-6.9 °C61 %1017.9 hPa16.1 kmCalmClear
2:55 AM-0.9 °C-6.6 °C66 %1017.9 hPa16.1 kmCalmClear
3:55 AM-1 °C-6 °C69 %1017.9 hPa16.1 kmSouth (190°)7.4 km/hClear
4:55 AM-0.9 °C-6.4 °C67 %1017.9 hPa16.1 kmSouth (170°)7.4 km/hClear
5:55 AM-1 °C-6.6 °C66 %1018.3 hPa16.1 kmCalmClear
6:55 AM-2.8 °C-6.3 °C77 %1018.3 hPa16.1 kmSSE (160°)7.4 km/hClear
7:55 AM-2.7 °C-6.1 °C78 %1019 hPa16.1 kmSSW (210°)9.3 km/hClear
8:55 AM1 °C-5.9 °C60 %1019.3 hPa16.1 kmSSW (210°)5.6 km/hClear
9:55 AM3.4 °C-4.8 °C55 %1020 hPa16.1 kmSSW (200°)11.1 km/hClear
10:55 AM6.5 °C-5 °C44 %1020.7 hPa16.1 kmCalmClear
11:55 AM9.9 °C-4.4 °C37 %1020 hPa16.1 kmSouth (190°)9.3 km/hClear
12:55 PM12.3 °C-3.7 °C33 %1019.3 hPa16.1 kmSSW (210°)16.7 km/hClear
1:55 PM13.7 °C-2.8 °C32 %1018.3 hPa16.1 kmSSW (210°)16.7 km/hClear
2:55 PM14.7 °C-2.6 °C30 %1018.3 hPa16.1 kmSSW (200°)14.8 km/hClear
3:55 PM15.2 °C-2.7 °C29 %1019.6 hPa16.1 kmEast (100°)5.6 km/hClear
4:55 PM13.7 °C-1.1 °C36 %1021.3 hPa16.1 kmNNE (20°)33.3 km/h42.6 km/hClear
5:55 PM8.9 °C-1.8 °C47 %1023.7 hPa16.1 kmNNE (20°)29.6 km/h37 km/hClear
6:55 PM6.8 °C-0.8 °C59 %1025.4 hPa16.1 kmNNE (30°)31.5 km/h42.6 km/hClear
7:55 PM4.5 °C-1.3 °C66 %1026.8 hPa16.1 kmNNE (20°)25.9 km/hClear
8:55 PM2.2 °C-2.5 °C71 %1027.8 hPa16.1 kmNNE (30°)37 km/h48.1 km/hClear
9:55 PM0.3 °C-3.8 °C74 %1028.8 hPa16.1 kmNE (40°)22.2 km/h33.3 km/hClear
10:55 PM-0.8 °C-4.5 °C76 %1028.1 hPa16.1 kmNE (40°)22.2 km/hClear
11:55 PM-1.6 °C-7.4 °C65 %1028.4 hPa16.1 kmNE (50°)20.4 km/hClear
Hourly data recorded from KFSI, located 0 kilometers away from Elgin, Oklahoma







STORIES FROM OUR PARTNERS